Temp
3 3 3 3 2 2 2 2 2 2 2 2 2 2 2 2 2 2 2 2 2 2 2 2 2 2 2 2 2 1 1 1 0 1 1 1 1 1 1 2 2 2 2 2 2 2 2 2 2 3 3 3 3 3 3 3 3 3 3 3 3 4 3 3 3 3 3 3 3 3 3 3 3 3 3 3 3 4 4 4 4 4 4 4 4 4
3 3 3 2 2 2 2 2 2 2 2 2 2 2 2 2 2 2 2 2 2 2 2 2 2 2 1 1 1 1 1 0 0 0 1 1 1 1 1 2 2 2 2 2 2 2 2 2 2 2 2 3 3 3 3 3 3 3 3 3 3 3 3 3 3 3 3 3 3 3 3 3 3 3 3 3 3 3 4 4 4 4 4 4 4 4
2 2 2 2 2 2 2 2 2 2 2 2 2 2 2 2 2 2 2 2 2 2 2 1 1 1 1 1 1 1 0 0 0 0 1 1 1 1 1 2 2 2 2 2 2 2 2 2 2 2 2 2 3 3 3 3 3 3 3 3 3 3 3 3 3 3 3 3 3 3 3 3 3 3 3 3 3 3 3 3 4 4 4 4 4 3
2 2 2 2 2 2 2 2 2 2 2 2 2 2 2 2 2 2 1 1 1 1 1 1 1 1 1 1 1 1 0 0 0 0 1 1 1 1 1 1 1 1 1 2 2 2 2 2 2 2 2 2 3 3 3 3 3 3 3 3 3 3 3 3 3 3 3 3 3 3 3 3 3 3 3 3 3 3 3 3 3 3 3 3 4 4
2 2 2 2 2 2 2 2 2 2 2 2 2 1 1 1 1 1 1 1 1 1 1 1 1 1 1 1 0 0 0 0 0 0 1 1 1 1 1 1 1 1 1 1 1 2 2 2 2 2 2 2 2 2 2 2 2 3 3 3 2 2 3 3 3 3 3 3 3 3 3 3 3 3 3 3 3 3 3 3 3 3 3 3 3 3
1 1 1 1 1 1 1 1 1 1 1 1 1 1 1 1 1 1 1 1 1 1 1 1 1 1 0 0 0 0 0 0 0 0 0 0 1 1 1 1 1 1 1 1 1 1 2 2 2 2 2 2 2 2 2 2 2 2 2 2 2 2 2 2 2 2 3 3 3 3 3 3 3 3 3 2 3 3 3 3 3 3 3 3 3 3
1 1 1 1 1 1 1 1 1 1 1 1 1 1 1 1 1 1 1 1 1 1 1 1 0 0 0 0 0 0 0 0 0 0 0 0 0 0 0 1 1 1 1 1 1 1 2 2 2 2 2 2 2 2 2 2 2 2 2 2 2 2 2 2 2 2 2 2 2 3 3 3 2 2 2 2 2 2 2 2 2 2 3 3 3 3
1 1 1 1 0 0 0 0 0 1 1 1 1 1 1 1 1 1 1 0 0 0 0 0 0 0 0 0 0 0 0 0 0 0 0 0 0 0 0 0 1 1 1 1 1 1 1 1 2 2 2 2 2 2 2 2 2 2 2 2 2 2 2 2 2 2 2 2 2 2 2 2 2 2 2 2 2 2 2 2 2 2 2 3 3 3
-0 0 0 0 0 0 0 0 0 0 0 0 0 0 0 0 0 0 0 0 0 0 0 0 0 0 0 0 0 0 0 0 -0 0 0 0 0 0 0 0 0 1 1 1 1 1 1 1 1 1 1 1 1 2 2 2 2 2 2 2 2 2 2 2 2 2 2 2 2 2 2 2 2 2 2 2 2 2 2 2 2 2 2 2 3 3
-1 -1 -1 -0 -0 -0 -0 -0 0 0 0 0 0 0 0 0 0 0 -0 -0 0 0 0 -0 -0 -0 0 0 0 0 0 -0 -0 -0 -0 0 0 0 0 0 0 1 1 1 1 1 1 1 1 1 1 1 1 1 1 1 1 1 1 1 1 1 1 1 2 2 2 2 2 2 2 2 2 2 2 2 2 2 2 2 2 2 2 2 2 2
-1 -1 -1 -1 -0 -0 -0 -0 0 0 0 0 0 0 0 0 0 -0 -1 -0 -0 -0 -0 0 0 0 0 0 0 0 -0 -0 -0 -0 -0 0 0 0 0 0 0 0 0 0 1 1 1 1 1 1 1 1 1 1 1 1 1 1 1 1 1 1 1 1 2 2 2 2 2 2 2 2 2 2 2 2 2 2 2 2 2 2 2 2 2 2
-1 -1 -0 -0 0 0 0 0 0 1 1 0 0 0 0 0 0 -0 -1 -1 -0 -0 -0 0 0 0 0 0 0 -0 -0 -0 -0 -0 -0 0 0 0 0 0 0 0 0 0 0 0 0 0 0 0 1 1 1 1 1 1 1 1 1 1 1 1 1 1 2 2 2 2 2 2 2 2 2 2 2 2 1 1 1 2 2 2 2 2 2 2
-0 0 0 0 1 1 1 1 1 1 1 0 0 -0 0 0 0 -0 -0 -0 -0 -0 -0 0 0 0 0 0 -0 -0 -1 -1 -1 -1 -0 -0 0 0 0 0 0 0 0 0 0 0 0 0 0 0 0 1 1 1 1 1 1 1 1 1 1 1 1 1 2 2 2 2 2 1 1 1 1 1 1 1 1 1 1 2 2 2 2 2 2 2
0 1 1 1 1 1 1 1 1 1 1 0 0 0 0 0 -0 -0 -0 -1 -0 -0 -0 0 0 0 -0 -0 -0 -1 -1 -1 -1 -1 -1 -0 -0 0 0 0 0 0 0 0 0 0 0 0 0 0 1 1 1 1 1 1 1 1 1 1 1 1 1 1 1 1 1 1 1 1 1 1 1 1 1 1 1 1 1 2 2 2 2 2 2 2
1 1 1 1 1 1 1 1 1 0 1 1 1 0 0 -0 -0 -1 -1 -1 -1 -0 -0 -0 -0 -0 -0 -0 -0 -1 -1 -1 -1 -1 -1 -0 -0 -0 -0 -0 0 0 0 -0 -0 -0 0 0 0 0 1 1 1 1 1 0 0 0 1 1 1 1 1 1 1 1 1 1 1 1 1 1 1 1 1 1 1 1 1 2 2 2 2 2 2 2
1 1 1 1 1 1 1 1 1 1 1 1 0 -0 -0 -1 -1 -1 -1 -1 -1 -1 -0 -0 -0 -0 -0 -0 -0 -0 -1 -1 -1 -1 -1 -0 -0 -0 -0 -0 -0 -0 -0 -0 -0 -0 -0 0 0 0 0 1 1 1 0 0 0 1 1 1 1 1 1 1 1 1 1 1 1 1 1 1 1 1 1 1 1 1 1 2 2 2 2 2 2 2
1 1 1 1 1 1 1 1 1 1 1 0 0 -0 -0 -0 -0 -1 -1 -1 -1 -0 -0 -1 -1 -1 -0 -0 -0 -0 -1 -1 -1 -1 -1 -1 -1 -0 -0 -0 -0 -0 -0 -1 -1 -1 -0 -0 -0 0 0 0 0 0 0 0 0 1 1 1 1 1 1 1 1 1 1 1 1 1 1 1 1 1 1 1 1 1 1 2 2 2 2 2 2 2
0 1 1 1 1 1 1 1 1 1 0 0 0 0 0 0 -0 -0 -0 -0 -0 -0 -0 -1 -1 -1 -1 -1 -0 -0 -0 -1 -1 -1 -1 -1 -1 -1 -1 -1 -1 -1 -1 -1 -1 -1 -1 -0 -0 -0 -0 -0 -0 -0 0 0 0 0 1 1 1 1 1 1 1 1 1 1 1 1 1 1 1 1 1 1 1 1 1 1 1 2 2 2 2 2
1 0 0 0 1 1 1 1 1 0 0 0 0 0 0 0 0 -0 -0 -0 -0 -1 -1 -1 -1 -1 -1 -1 -1 -1 -1 -1 -1 -1 -1 -1 -1 -1 -1 -1 -1 -1 -1 -1 -1 -1 -1 -1 -0 -0 -0 -0 -0 -0 -0 0 0 0 0 0 0 0 0 0 0 0 1 0 0 0 0 0 1 1 1 1 1 1 1 1 1 1 2 2 2 2
2 1 1 1 1 1 1 0 0 0 1 0 0 0 0 -0 -0 -1 -1 -1 -1 -1 -1 -1 -1 -1 -1 -1 -1 -1 -1 -1 -1 -1 -1 -1 -1 -1 -1 -1 -1 -1 -1 -1 -1 -1 -1 -0 -0 -0 -0 -0 -0 -0 -0 -0 0 0 0 0 0 0 0 0 0 0 0 0 0 0 0 0 0 0 0 1 1 1 1 1 1 1 2 2 2 2
2 2 2 2 2 1 1 1 1 1 1 1 0 -0 -0 -1 -1 -1 -1 -0 -1 -1 -1 -1 -1 -1 -1 -1 -1 -1 -1 -1 -1 -2 -1 -1 -1 -1 -1 -1 -1 -1 -1 -1 -1 -1 -1 -0 -0 -0 -0 -0 -0 -0 -0 -0 -0 -0 -0 -0 -0 -0 -0 -0 -0 -0 -0 -0 -0 -0 -0 -0 -0 0 0 0 1 1 1 1 1 1 1 2 2 2
2 2 2 2 2 2 2 2 2 1 1 1 0 -0 -1 -1 -1 -0 -0 -0 -1 -1 -1 -1 -1 -1 -1 -1 -1 -1 -1 -1 -2 -2 -2 -1 -1 -1 -1 -1 -1 -1 -1 -1 -1 -1 -1 -0 -1 -1 -1 -1 -1 -1 -1 -0 -0 -0 -0 -0 -0 -0 -0 -1 -1 -1 -1 -1 -1 -1 -1 -0 -0 -0 0 0 1 1 1 1 1 1 1 1 2 2
1 1 1 1 1 1 1 1 1 1 1 1 0 -0 -0 -0 0 0 -0 -0 -1 -1 -1 -1 -1 -1 -2 -2 -1 -1 -1 -1 -1 -2 -2 -1 -1 -1 -1 -1 -1 -1 -1 -1 -1 -1 -1 -1 -1 -1 -1 -1 -1 -1 -1 -1 -1 -1 -0 -0 -0 -1 -1 -1 -1 -1 -1 -1 -1 -1 -1 -0 -0 -0 0 0 0 1 1 1 1 1 1 1 1 1
1 1 1 1 1 1 1 1 1 1 1 1 0 0 0 1 1 0 0 -0 -1 -1 -1 -2 -2 -2 -2 -2 -2 -1 -1 -1 -1 -2 -2 -2 -1 -1 -1 -1 -1 -1 -1 -1 -1 -1 -1 -1 -1 -1 -1 -1 -1 -1 -1 -1 -1 -1 -1 -1 -1 -1 -1 -1 -1 -1 -1 -1 -1 -1 -1 -1 -0 -0 0 0 0 0 0 1 1 1 1 1 1 1
1 1 1 1 1 0 0 0 0 0 1 1 1 1 1 1 1 1 0 -0 -1 -2 -2 -2 -2 -2 -2 -2 -2 -2 -1 -1 -1 -1 -2 -1 -1 -1 -1 -1 -1 -1 -1 -1 -1 -1 -1 -1 -1 -1 -1 -1 -1 -1 -1 -1 -1 -1 -1 -1 -1 -1 -1 -1 -1 -1 -1 -1 -1 -1 -1 -1 -1 -0 -0 -0 0 0 0 1 1 1 1 1 1 1
1 1 1 1 1 1 1 0 0 0 0 0 0 1 1 1 1 0 -1 -1 -1 -2 -2 -2 -2 -2 -1 -1 -1 -1 -1 -1 -1 -1 -1 -1 -1 -1 -1 -1 -1 -1 -1 -2 -2 -2 -2 -2 -2 -1 -1 -1 -1 -1 -1 -1 -1 -1 -1 -1 -2 -2 -2 -2 -2 -2 -2 -2 -1 -1 -1 -1 -1 -1 -0 -0 -0 0 0 0 0 1 1 1 1 1
1 1 1 1 1 1 1 1 1 1 1 1 1 1 1 0 0 -0 -1 -1 -1 -2 -2 -2 -1 -1 -1 -1 -0 -0 -0 -1 -1 -1 -1 -1 -2 -2 -2 -1 -1 -2 -2 -2 -2 -2 -2 -2 -2 -1 -1 -1 -1 -1 -1 -1 -1 -2 -2 -2 -2 -2 -2 -2 -2 -2 -2 -2 -2 -1 -1 -1 -1 -1 -1 -0 -0 -0 0 0 0 0 1 1 1 1
1 1 1 1 1 1 1 1 1 1 1 1 1 1 1 1 0 -0 -1 -1 -1 -1 -1 -1 -1 -1 -1 -1 -1 -1 -1 -1 -1 -1 -1 -1 -2 -2 -2 -1 -2 -2 -2 -2 -2 -2 -2 -2 -1 -1 -1 -1 -1 -1 -1 -1 -2 -2 -2 -2 -2 -2 -2 -2 -2 -2 -2 -2 -2 -2 -1 -1 -1 -1 -1 -0 -0 0 0 0 1 1 1 1 1 0
1 1 1 1 1 1 1 1 1 1 1 1 1 1 1 1 1 0 -0 -0 -1 -1 -1 -1 -1 -1 -1 -1 -1 -1 -1 -1 -1 -1 -1 -2 -2 -2 -2 -2 -2 -2 -2 -2 -2 -2 -1 -1 -1 -1 -1 -1 -1 -1 -2 -2 -2 -2 -2 -2 -2 -2 -2 -2 -2 -2 -2 -2 -2 -2 -2 -1 -1 -1 -1 -0 -0 0 0 0 0 1 0 0 0 0
1 1 1 1 1 1 1 1 1 1 1 1 1 1 1 1 0 0 -0 -0 -1 -1 -1 -1 -1 -1 -1 -1 -1 -1 -2 -1 -1 -1 -2 -2 -2 -2 -2 -2 -2 -2 -2 -2 -2 -2 -1 -1 -1 -1 -1 -1 -2 -2 -2 -2 -2 -2 -2 -2 -2 -2 -2 -2 -2 -2 -2 -2 -2 -2 -2 -2 -1 -1 -1 -0 -0 -0 0 0 0 0 0 0 0 0
1 1 1 1 1 1 1 1 1 0 0 0 1 1 0 0 0 -0 -0 -1 -1 -1 -1 -1 -1 -1 -1 -1 -1 -2 -2 -1 -1 -1 -2 -2 -2 -2 -2 -2 -2 -2 -2 -2 -2 -2 -2 -1 -1 -1 -2 -2 -2 -2 -2 -2 -2 -2 -2 -2 -2 -2 -2 -2 -2 -2 -2 -2 -2 -2 -2 -2 -1 -1 -1 -0 -0 0 0 0 0 0 0 0 -0 -0
0 0 1 1 1 1 1 1 0 0 0 0 0 0 0 0 -0 -0 -1 -1 -1 -1 -1 -1 -1 -2 -2 -2 -2 -2 -2 -1 -1 -2 -2 -2 -2 -2 -2 -2 -2 -2 -2 -2 -2 -2 -2 -2 -2 -2 -2 -2 -2 -2 -2 -2 -2 -2 -2 -2 -2 -2 -2 -2 -2 -2 -2 -2 -2 -2 -2 -2 -1 -1 -1 -0 -0 -0 0 0 0 0 0 -0 -0 -0
0 0 0 0 0 0 0 0 0 0 0 0 0 0 0 -0 -0 -1 -1 -1 -1 -1 -1 -1 -2 -2 -2 -2 -2 -2 -2 -2 -2 -1 -2 -2 -2 -2 -2 -2 -2 -2 -2 -2 -2 -2 -2 -2 -2 -2 -2 -2 -2 -2 -2 -2 -2 -2 -2 -3 -3 -3 -3 -3 -2 -2 -2 -2 -2 -2 -2 -2 -1 -1 -1 -1 -0 -0 -0 -0 -0 -0 -0 -0 -0 -0
-0 -0 -0 -0 -0 -0 -0 -0 0 0 0 0 0 -0 -0 -0 -1 -1 -1 -1 -1 -1 -1 -1 -2 -2 -2 -2 -2 -2 -2 -2 -1 -1 -1 -2 -2 -2 -2 -2 -2 -2 -2 -2 -2 -2 -2 -3 -3 -3 -2 -2 -2 -2 -2 -2 -2 -2 -3 -3 -3 -3 -3 -3 -3 -2 -2 -2 -2 -2 -2 -2 -1 -1 -1 -1 -1 -1 -1 -1 -1 -1 -1 -1 -1 -1
-0 -0 -0 -1 -1 -1 -0 -0 -0 -0 -0 -0 -0 -0 -1 -1 -1 -1 -1 -1 -1 -1 -1 -1 -2 -2 -2 -2 -2 -2 -2 -1 -1 -1 -2 -2 -2 -2 -2 -2 -2 -2 -2 -2 -2 -2 -2 -2 -2 -2 -2 -2 -2 -2 -2 -2 -2 -3 -3 -3 -3 -3 -3 -3 -3 -2 -2 -2 -2 -2 -2 -2 -2 -1 -1 -1 -1 -1 -1 -1 -1 -1 -1 -1 -1 -1
-1 -1 -0 -0 -0 -0 -0 -0 -1 -1 -1 -1 -1 -1 -1 -1 -1 -1 -1 -1 -1 -1 -1 -1 -2 -2 -2 -2 -2 -2 -2 -1 -1 -2 -2 -2 -2 -2 -2 -2 -2 -2 -3 -3 -3 -3 -3 -2 -2 -2 -2 -2 -2 -2 -2 -2 -3 -3 -3 -3 -3 -3 -3 -3 -2 -2 -2 -2 -2 -2 -2 -2 -2 -1 -1 -1 -1 -1 -1 -1 -1 -1 -1 -1 -1 -1
-1 -1 -1 -1 -1 -1 -1 -1 -1 -1 -1 -1 -1 -1 -2 -2 -2 -2 -2 -2 -2 -1 -2 -2 -2 -2 -2 -2 -2 -2 -2 -1 -2 -2 -2 -2 -2 -2 -2 -3 -3 -3 -3 -3 -3 -3 -3 -3 -2 -2 -2 -2 -2 -2 -2 -3 -3 -3 -3 -3 -3 -3 -3 -2 -2 -2 -2 -2 -2 -2 -2 -2 -2 -2 -2 -2 -2 -2 -2 -1 -1 -2 -2 -2 -2 -2
-2 -2 -2 -2 -2 -2 -2 -2 -2 -2 -2 -2 -2 -2 -2 -2 -2 -2 -2 -2 -2 -2 -1 -1 -1 -2 -2 -2 -2 -2 -2 -2 -2 -2 -2 -2 -2 -2 -3 -3 -3 -3 -3 -3 -3 -3 -3 -3 -3 -2 -2 -2 -2 -2 -3 -3 -3 -3 -3 -3 -3 -3 -3 -2 -2 -2 -2 -2 -2 -2 -2 -2 -2 -2 -2 -2 -2 -2 -2 -2 -2 -2 -2 -2 -2 -2
-2 -2 -2 -2 -2 -2 -2 -2 -2 -2 -2 -2 -2 -2 -2 -2 -2 -2 -2 -2 -2 -2 -2 -2 -2 -2 -2 -2 -2 -2 -2 -2 -2 -2 -2 -2 -2 -2 -3 -3 -3 -3 -3 -3 -3 -3 -3 -3 -3 -3 -3 -3 -3 -3 -3 -3 -3 -3 -3 -3 -3 -3 -3 -3 -2 -2 -2 -2 -2 -2 -2 -2 -2 -2 -2 -2 -2 -2 -2 -2 -2 -2 -2 -2 -2 -2
-3 -3 -3 -3 -3 -2 -2 -2 -2 -2 -2 -2 -2 -2 -2 -2 -2 -2 -2 -2 -2 -2 -2 -2 -2 -2 -2 -2 -3 -3 -3 -2 -2 -2 -2 -3 -3 -2 -3 -3 -3 -3 -3 -3 -3 -3 -3 -3 -3 -3 -3 -3 -3 -3 -3 -3 -3 -3 -3 -3 -3 -3 -3 -3 -2 -2 -2 -2 -2 -2 -2 -2 -2 -2 -2 -2 -2 -2 -2 -2 -2 -2 -2 -2 -2 -2
-3 -3 -3 -3 -3 -3 -2 -2 -2 -2 -2 -2 -2 -2 -3 -3 -3 -2 -2 -2 -2 -2 -2 -2 -2 -2 -2 -2 -2 -2 -3 -3 -3 -3 -3 -3 -3 -3 -3 -3 -3 -2 -3 -3 -3 -3 -3 -3 -3 -3 -3 -3 -3 -3 -3 -3 -3 -3 -3 -3 -3 -3 -3 -3 -2 -2 -2 -2 -2 -2 -2 -2 -2 -2 -2 -2 -2 -2 -2 -2 -2 -2 -2 -2 -2 -2
-2 -3 -3 -3 -3 -3 -3 -3 -3 -3 -3 -3 -3 -3 -3 -3 -3 -3 -3 -3 -3 -3 -3 -3 -2 -2 -2 -2 -2 -2 -3 -3 -3 -3 -3 -3 -3 -3 -3 -3 -3 -3 -3 -3 -3 -3 -3 -3 -3 -3 -3 -3 -3 -3 -3 -3 -3 -3 -3 -3 -3 -3 -3 -3 -3 -3 -3 -2 -2 -2 -2 -2 -2 -2 -2 -2 -2 -2 -2 -2 -2 -2 -2 -2 -2 -2
-3 -3 -3 -3 -3 -3 -3 -3 -3 -3 -3 -3 -3 -3 -3 -3 -3 -3 -3 -3 -3 -3 -3 -3 -3 -3 -3 -3 -3 -3 -3 -3 -3 -3 -3 -3 -3 -3 -3 -3 -3 -3 -3 -3 -3 -3 -3 -3 -3 -3 -3 -4 -4 -4 -3 -3 -3 -3 -3 -3 -3 -3 -3 -3 -3 -3 -3 -3 -2 -2 -2 -2 -2 -2 -2 -2 -2 -2 -2 -2 -2 -2 -2 -2 -2 -2
-3 -3 -3 -3 -3 -3 -3 -3 -3 -3 -3 -3 -3 -3 -3 -3 -3 -3 -3 -3 -3 -3 -3 -3 -3 -3 -3 -3 -3 -3 -3 -3 -3 -3 -3 -3 -3 -3 -3 -3 -3 -3 -3 -3 -3 -3 -3 -3 -3 -3 -3 -3 -4 -4 -4 -3 -3 -3 -3 -3 -3 -3 -3 -3 -3 -3 -3 -3 -3 -2 -2 -2 -2 -2 -2 -2 -2 -2 -2 -2 -2 -2 -2 -2 -2 -2
-3 -3 -3 -3 -3 -3 -3 -3 -3 -3 -3 -3 -3 -3 -3 -3 -3 -3 -3 -3 -3 -3 -3 -3 -3 -3 -3 -3 -3 -3 -3 -3 -3 -3 -3 -3 -3 -3 -3 -3 -3 -3 -3 -3 -3 -3 -3 -3 -3 -3 -3 -3 -4 -4 -4 -3 -3 -3 -4 -4 -4 -4 -4 -4 -4 -4 -3 -3 -3 -2 -2 -2 -2 -2 -2 -2 -2 -2 -2 -2 -2 -2 -2 -2 -2 -2
-3 -3 -3 -3 -3 -3 -3 -3 -3 -3 -3 -3 -3 -3 -3 -3 -3 -3 -3 -3 -3 -3 -3 -3 -3 -3 -3 -4 -4 -4 -4 -3 -3 -3 -3 -3 -3 -3 -3 -3 -3 -3 -3 -3 -3 -3 -3 -3 -3 -3 -3 -3 -3 -3 -3 -3 -4 -4 -4 -4 -4 -4 -4 -4 -4 -4 -4 -3 -3 -3 -2 -2 -2 -2 -2 -2 -2 -2 -2 -2 -2 -2 -2 -2 -2 -2
-3 -3 -3 -3 -3 -3 -3 -3 -3 -3 -3 -3 -3 -3 -3 -3 -3 -3 -3 -3 -3 -3 -3 -3 -3 -3 -4 -4 -4 -4 -4 -4 -4 -4 -3 -3 -3 -3 -3 -3 -3 -3 -3 -3 -3 -3 -3 -3 -3 -3 -3 -3 -3 -3 -3 -3 -4 -4 -4 -4 -4 -4 -4 -4 -4 -4 -3 -3 -3 -3 -3 -2 -2 -2 -2 -2 -2 -2 -2 -2 -2 -2 -2 -2 -2 -2
-3 -3 -3 -3 -3 -3 -3 -3 -3 -3 -3 -3 -3 -3 -3 -3 -3 -3 -3 -3 -3 -3 -3 -3 -4 -4 -4 -4 -4 -4 -4 -4 -4 -4 -4 -4 -3 -3 -3 -3 -3 -3 -3 -3 -3 -3 -3 -3 -3 -3 -3 -3 -3 -3 -3 -4 -4 -4 -4 -4 -4 -5 -5 -4 -4 -4 -3 -3 -3 -3 -3 -3 -3 -3 -3 -3 -3 -3 -3 -2 -2 -2 -2 -2 -2 -2
-3 -3 -3 -3 -3 -3 -3 -3 -3 -3 -3 -3 -3 -3 -3 -3 -3 -3 -3 -3 -4 -4 -4 -4 -4 -4 -4 -4 -4 -4 -4 -4 -4 -4 -4 -4 -4 -4 -4 -3 -3 -3 -3 -3 -3 -3 -3 -3 -3 -3 -3 -3 -3 -3 -4 -4 -4 -4 -4 -4 -4 -5 -5 -5 -4 -4 -4 -3 -3 -3 -3 -3 -3 -3 -3 -3 -3 -3 -3 -2 -2 -2 -2 -2 -2 -2
-3 -3 -3 -3 -3 -3 -3 -3 -3 -3 -3 -3 -3 -3 -3 -3 -4 -4 -4 -4 -4 -4 -4 -4 -4 -4 -4 -4 -4 -4 -4 -4 -4 -4 -4 -4 -4 -4 -4 -4 -4 -3 -3 -3 -3 -3 -3 -3 -2 -2 -2 -3 -3 -3 -3 -4 -4 -4 -4 -4 -4 -5 -5 -5 -5 -4 -4 -4 -3 -3 -3 -3 -3 -3 -3 -3 -3 -3 -2 -2 -2 -2 -2 -2 -2 -2
-3 -3 -3 -3 -4 -4 -4 -4 -4 -4 -4 -4 -4 -4 -4 -4 -4 -4 -4 -4 -4 -4 -4 -4 -4 -4 -4 -4 -4 -4 -4 -4 -5 -5 -5 -4 -4 -4 -4 -4 -4 -4 -4 -3 -3 -3 -3 -3 -3 -2 -2 -3 -3 -3 -3 -4 -4 -4 -4 -4 -5 -5 -5 -5 -5 -4 -4 -4 -4 -3 -3 -3 -3 -3 -3 -3 -3 -3 -2 -3 -3 -2 -2 -2 -2 -2
Height
801 800 800 800 799 798 798 798 798 797 796 796 796 796 795 795 794 794 793 793 792 792 791 790 789 788 787 786 785 784 783 782 781 780 779 778 778 777 776 775 774 773 773 772 771 770 769 768 767 767 766 765 764 763 762 761 760 759 758 757 756 755 754 753 753 752 751 749 748 747 746 745 743 742 741 739 739 738 737 736 736 735 734 733 732 732
799 799 798 798 798 797 796 796 796 796 795 795 794 794 794 793 793 792 792 792 791 790 789 788 788 787 785 784 783 782 781 780 779 778 778 777 776 775 775 774 773 772 771 770 769 769 768 767 766 765 764 763 763 762 761 760 758 758 757 756 755 754 753 752 751 750 749 748 747 746 744 743 742 740 739 738 737 736 735 734 734 733 733 732 731 731
798 798 797 797 797 796 795 794 795 795 794 793 793 793 793 792 791 791 790 790 789 788 788 787 786 785 784 783 782 781 780 779 778 777 776 776 775 774 773 772 771 771 770 769 768 767 767 766 765 764 763 762 761 760 759 758 757 756 755 755 754 753 752 751 750 749 748 746 745 744 743 741 740 739 738 737 735 734 733 733 732 731 731 731 730 729
797 796 795 795 795 794 794 793 793 793 793 793 792 792 791 790 790 789 788 788 787 787 786 786 785 783 782 781 780 779 778 778 777 776 775 774 773 773 772 771 770 769 768 768 767 766 765 764 763 763 762 761 760 759 758 757 756 755 754 753 753 752 750 749 748 747 746 745 743 742 741 740 739 738 736 735 734 734 732 731 730 730 730 729 729 728
795 795 794 794 793 793 792 792 792 792 792 791 791 790 789 789 788 787 787 786 786 785 784 783 783 782 781 780 778 778 777 776 775 775 774 773 772 771 770 769 769 768 767 766 766 765 764 763 762 761 760 759 758 758 757 756 755 754 753 752 751 750 749 748 747 745 744 743 742 741 739 739 738 736 735 734 734 733 731 730 729 729 728 728 727 726
793 793 793 793 792 791 791 791 791 790 790 789 789 788 788 787 786 786 785 784 784 783 782 782 781 780 779 778 777 776 776 775 774 773 773 772 771 770 769 768 767 767 766 765 764 763 763 762 761 760 759 758 757 756 755 754 753 753 752 751 750 748 747 746 745 744 743 742 740 739 738 737 736 735 734 734 733 732 730 729 729 728 727 726 726 725
792 792 792 791 790 790 789 789 789 789 788 788 787 786 786 785 784 784 783 783 782 781 781 780 779 779 778 777 776 775 774 773 773 772 771 770 769 768 768 767 766 765 764 764 763 762 761 760 760 759 758 757 756 755 754 753 752 751 750 749 748 747 746 745 743 742 741 740 739 738 737 736 735 734 733 732 731 730 729 729 728 727 726 725 724 723
790 789 790 790 789 788 788 787 787 787 787 786 785 784 783 783 782 782 781 781 780 780 779 778 778 777 776 775 774 773 773 772 771 770 769 768 768 767 766 765 764 764 763 762 762 761 760 759 758 758 757 756 755 754 753 752 751 750 749 748 747 746 744 743 742 741 740 739 738 737 736 734 734 733 732 731 730 729 728 728 727 726 725 724 723 722
789 788 788 788 788 787 786 785 785 785 785 785 784 783 781 780 779 779 779 778 778 778 778 777 776 775 774 774 773 772 771 771 770 769 768 767 766 765 765 764 763 762 762 761 760 759 759 758 757 756 755 754 753 752 751 750 749 748 748 746 745 744 743 742 741 739 739 737 736 735 734 733 732 732 731 730 729 728 727 726 726 725 724 723 722 721
788 787 786 786 786 786 785 783 782 783 783 783 782 781 780 778 778 777 777 776 776 776 776 776 775 773 772 772 772 771 770 769 769 768 767 766 765 764 763 763 762 761 760 759 759 758 757 756 755 754 753 753 752 751 750 749 748 747 746 745 744 743 742 740 739 738 737 736 735 734 733 732 731 730 729 728 727 726 725 725 724 724 723 721 720 719
786 786 786 784 784 784 783 782 781 780 781 780 779 778 778 777 776 775 775 774 774 774 774 774 774 773 771 770 770 769 769 768 767 766 765 764 764 763 762 761 761 760 759 758 757 756 755 754 754 753 752 751 750 749 748 747 746 745 744 743 742 741 740 739 738 737 736 734 733 732 731 730 729 729 728 727 725 725 724 723 722 722 721 720 719 718
785 784 784 783 782 781 781 780 779 778 778 778 777 775 774 774 775 775 774 773 773 773 773 772 772 772 771 769 768 768 767 766 765 764 763 763 762 761 760 760 759 758 757 756 755 755 754 753 752 751 750 749 748 747 746 745 744 743 743 742 741 740 739 738 737 735 734 733 732 731 730 729 728 727 726 725 724 723 722 721 720 720 719 718 718 717
783 783 782 780 779 779 778 777 776 776 776 775 775 773 772 773 773 773 773 772 772 772 772 771 770 770 769 768 768 766 766 765 764 763 762 761 760 760 759 758 757 757 756 755 753 753 752 751 750 749 748 748 747 746 745 744 743 742 741 740 739 738 737 736 735 734 733 731 730 729 728 727 726 725 724 723 722 721 721 720 719 718 717 716 716 715
780 779 779 778 776 776 775 774 774 773 773 773 772 772 771 772 772 772 772 771 771 771 771 770 768 768 767 767 766 765 764 764 763 762 761 760 759 758 758 757 756 755 754 753 752 751 750 750 749 748 747 746 745 744 743 742 741 740 739 739 738 737 736 735 734 733 731 730 729 728 727 726 725 724 723 721 720 720 719 718 717 716 715 714 714 713
777 777 776 774 773 773 772 772 772 771 770 770 770 770 770 771 771 771 771 770 770 770 769 768 767 766 765 764 764 763 763 763 762 761 759 758 758 758 757 756 755 754 753 752 751 749 749 748 747 746 745 744 743 743 742 741 740 739 739 738 737 735 734 733 732 731 730 729 728 727 726 724 723 722 721 720 719 719 718 717 716 715 714 713 712 711
774 774 773 771 770 770 770 770 770 769 768 768 769 769 769 769 769 769 770 769 768 768 768 767 765 764 763 762 762 762 762 761 761 760 758 757 756 757 757 755 754 753 752 751 749 748 747 747 746 745 744 743 742 741 740 740 739 738 737 736 735 734 733 732 731 729 729 728 726 725 724 723 722 720 719 719 718 717 716 715 714 714 712 711 710 709
772 771 770 769 768 768 768 768 768 768 767 767 767 767 767 767 767 767 767 767 767 767 766 766 765 763 761 759 760 760 761 760 759 759 758 756 755 755 755 755 753 752 750 749 748 747 746 745 745 744 743 742 741 740 739 739 738 737 736 735 734 733 731 730 729 728 727 726 725 724 723 721 720 719 719 718 717 716 715 714 713 712 711 710 709 708
769 769 768 768 767 767 767 767 767 766 766 766 765 765 765 765 765 765 765 765 765 765 764 764 763 763 761 759 758 758 759 759 758 758 757 755 754 753 753 753 752 750 749 748 746 746 745 744 743 743 742 741 740 739 739 738 736 735 734 733 732 731 730 729 728 726 725 724 723 722 721 720 719 718 718 717 716 715 714 713 712 711 709 709 708 707
767 767 767 766 765 765 765 765 765 764 764 764 764 764 763 763 763 763 763 763 763 763 762 762 761 761 760 758 757 757 758 758 758 756 755 754 752 752 752 752 750 749 747 746 745 744 744 743 743 742 741 740 739 738 737 736 735 734 733 732 731 729 728 727 726 725 724 723 722 721 720 719 718 717 716 715 714 713 712 711 710 709 708 707 706 705
766 765 765 765 764 763 763 763 763 763 763 763 763 763 762 762 762 762 762 762 761 761 761 760 760 759 758 757 756 756 757 757 756 755 754 752 751 750 750 750 749 747 746 744 744 743 743 742 741 740 739 739 738 737 736 735 734 733 732 730 729 728 727 726 725 724 723 721 720 719 718 718 717 716 715 714 713 712 711 709 709 707 706 705 704 704
764 763 763 764 763 762 761 761 761 761 761 761 761 761 760 760 760 760 760 760 759 759 759 758 758 757 757 756 755 754 755 755 755 754 752 751 749 748 748 748 747 746 744 743 743 743 742 741 740 739 738 737 736 735 734 734 732 731 730 729 728 727 726 724 723 722 721 720 719 718 717 716 715 714 713 712 711 710 709 708 707 706 704 704 703 702
763 761 761 762 762 761 759 759 759 760 760 760 759 758 758 758 758 758 758 758 758 757 757 756 756 755 755 754 753 753 753 754 753 753 751 749 748 747 747 747 746 744 743 742 741 741 741 740 739 738 737 736 735 734 733 732 731 730 729 728 727 725 724 723 722 721 719 719 717 716 715 714 714 713 712 711 710 709 708 706 705 704 703 702 701 700
761 759 758 759 759 758 758 758 758 758 758 758 757 757 756 756 756 756 755 756 755 755 755 754 754 754 753 753 752 751 751 752 752 751 750 748 746 745 745 745 744 743 742 741 741 740 739 738 737 736 735 734 734 733 732 731 730 729 728 727 725 724 723 722 721 719 718 717 716 715 714 713 712 711 710 709 708 707 706 705 704 702 701 699 698 698
758 757 756 756 756 755 755 755 755 755 755 755 755 755 754 754 754 754 753 753 753 753 753 753 753 752 752 751 750 750 749 750 750 750 749 747 745 744 744 744 743 742 741 740 740 739 738 737 735 734 734 733 732 731 730 729 729 728 727 726 724 723 722 721 719 718 717 716 714 713 712 711 710 709 709 708 706 705 704 703 702 700 699 698 697 696
756 755 754 753 753 753 752 752 752 752 752 752 753 753 753 753 753 752 752 751 751 751 751 751 751 751 750 749 749 748 748 748 748 748 748 746 745 743 743 743 743 741 740 739 738 738 737 735 734 733 732 731 731 730 729 729 728 727 726 725 724 722 721 719 718 717 715 714 713 712 711 710 709 708 707 706 705 704 703 702 701 699 698 697 696 695
755 754 753 752 752 751 751 750 750 750 750 750 750 750 751 751 751 750 750 750 749 750 750 750 750 749 749 748 748 747 747 747 747 747 747 746 744 743 742 742 742 741 739 738 737 736 735 734 733 731 731 730 730 729 729 728 727 726 725 724 722 721 719 718 717 716 714 713 712 711 709 709 708 706 705 705 704 703 702 701 700 699 697 696 695 694
753 753 752 752 751 750 750 749 749 749 749 749 749 749 749 749 749 749 749 748 748 748 749 749 749 748 748 748 747 747 747 747 747 746 746 745 743 742 742 741 741 740 739 737 736 735 734 733 732 731 730 729 729 729 728 727 726 725 724 722 721 720 719 717 716 714 713 712 711 709 709 707 706 705 704 704 703 702 701 700 699 698 697 696 695 694
751 751 750 750 749 749 748 748 748 748 748 748 748 748 748 748 748 748 748 748 748 748 748 748 748 747 747 746 746 746 746 746 746 745 745 744 743 742 741 741 740 739 738 736 734 734 733 732 731 730 729 729 728 728 727 726 725 724 722 721 720 719 717 716 715 714 712 711 710 709 707 706 705 704 703 702 701 700 699 699 698 697 696 695 694 694
748 748 748 748 747 747 747 746 746 745 745 746 746 747 748 748 747 747 747 747 747 747 747 747 747 747 746 746 745 745 745 744 744 744 743 743 742 741 741 740 739 739 737 735 734 732 732 731 731 730 729 729 728 726 725 724 723 722 721 720 719 717 716 715 714 712 711 710 709 707 706 705 704 703 702 701 700 699 698 698 697 696 695 694 694 693
745 745 745 745 745 745 745 744 744 744 744 744 745 746 746 746 745 745 746 746 746 746 746 746 746 746 746 745 745 744 743 743 743 743 743 743 742 741 740 739 739 738 737 735 733 731 730 730 730 730 729 728 727 725 724 723 722 721 720 719 718 716 715 714 713 711 710 709 707 706 705 704 702 701 700 699 699 698 697 697 696 695 694 694 693 693
743 743 743 742 742 742 742 742 743 743 743 743 743 744 744 744 744 744 744 744 744 744 745 745 745 745 745 745 745 743 743 742 742 742 742 742 741 740 739 739 738 737 736 736 734 732 730 729 729 729 728 727 726 725 724 723 722 720 719 718 717 715 714 713 712 710 709 708 706 705 704 703 701 700 699 699 698 697 696 696 695 694 694 693 692 692
743 742 741 741 740 740 740 740 740 740 741 741 741 742 742 742 743 743 743 743 743 743 743 744 744 744 745 745 744 743 743 742 742 742 742 741 740 739 739 738 737 736 735 735 734 733 732 730 729 728 728 727 725 724 723 722 721 720 719 718 716 714 713 712 711 709 708 707 705 704 703 702 701 700 699 698 697 696 695 695 694 694 693 692 692 691
741 741 740 739 739 738 738 738 738 739 739 739 739 740 741 741 741 741 741 742 742 742 743 743 743 743 744 743 743 743 742 741 741 741 741 740 739 739 738 737 736 735 735 734 734 734 733 731 729 728 727 726 725 724 723 722 721 720 719 717 716 714 713 712 710 709 708 706 705 704 702 701 700 699 699 698 697 696 695 694 694 693 692 692 691 691
739 739 739 738 737 737 737 737 737 737 737 737 738 739 739 739 740 740 740 741 741 741 742 742 742 743 743 742 742 741 741 741 741 741 740 740 739 738 737 736 735 735 734 734 734 733 732 731 730 729 727 725 724 723 722 721 720 719 718 717 715 714 713 711 710 709 707 706 704 703 702 701 700 699 699 698 697 696 695 694 694 693 693 692 691 691
738 738 737 737 736 736 735 735 735 735 735 736 736 737 738 738 739 739 739 740 740 740 741 741 741 741 741 741 741 740 739 739 739 740 739 739 738 737 736 735 735 734 734 734 733 733 732 731 730 729 727 725 723 722 721 721 719 718 717 716 715 714 713 711 710 709 707 706 704 703 702 701 701 700 699 698 697 696 695 694 694 693 692 692 691 690
736 736 736 736 735 735 734 734 734 734 734 734 735 736 736 737 738 739 739 739 739 740 740 740 740 740 740 740 740 739 739 738 739 739 739 738 737 736 736 735 734 734 734 734 733 732 731 730 729 728 727 725 724 722 720 719 719 717 716 715 714 713 712 711 710 709 708 706 705 704 703 702 701 700 699 698 697 696 695 694 694 693 692 691 691 690
735 735 735 735 734 734 734 733 733 733 733 733 734 734 735 736 737 738 738 739 739 739 739 739 739 739 739 739 739 738 738 738 738 738 737 737 737 736 735 734 734 734 734 733 733 732 731 730 729 727 726 725 724 723 721 719 718 717 715 714 714 713 712 711 710 709 708 707 705 704 704 703 701 700 699 698 697 696 695 694 693 692 691 691 690 689
735 734 734 734 734 734 733 733 732 732 733 733 734 734 735 736 736 737 737 738 738 738 739 739 738 738 738 738 737 737 737 737 737 737 736 736 736 735 734 734 733 733 733 733 732 731 731 729 728 727 726 725 724 724 722 721 719 717 715 714 714 713 712 711 710 709 708 707 706 705 704 703 702 700 699 698 697 695 694 693 693 692 691 690 689 689
734 734 734 733 733 733 733 733 732 732 733 733 734 734 735 735 736 736 737 737 738 738 738 738 738 737 737 737 737 737 736 736 736 736 736 735 735 734 734 733 732 732 732 731 731 731 730 729 728 727 726 725 724 723 722 721 720 718 716 714 713 712 712 711 710 709 708 707 706 705 704 703 702 701 699 698 697 695 694 693 692 692 691 690 689 688
734 733 733 733 733 733 733 733 732 732 733 733 734 734 734 735 736 736 737 737 737 737 737 737 737 737 737 736 736 736 736 736 736 735 735 735 734 734 733 733 732 731 731 730 730 730 729 729 728 727 727 726 725 724 722 721 720 719 717 715 714 712 711 711 710 709 708 707 706 705 704 703 702 701 700 699 697 696 695 694 693 692 691 690 689 688
733 733 732 732 732 733 733 732 732 733 733 733 734 734 735 735 736 736 737 737 737 737 737 737 737 736 736 736 736 736 736 735 735 735 735 734 734 733 732 732 731 730 730 729 729 729 729 728 727 727 726 726 725 724 722 721 720 719 718 717 715 714 712 711 710 709 708 707 706 705 704 703 702 701 700 699 698 697 696 695 694 692 691 690 689 689
732 732 732 732 732 732 732 733 733 733 733 734 734 735 735 736 736 736 737 737 737 737 737 736 736 736 736 736 735 735 735 735 735 735 734 734 733 732 731 731 730 730 729 729 728 728 728 727 727 727 726 725 724 724 722 721 720 719 719 718 716 714 712 711 710 709 708 707 706 705 704 703 702 701 700 699 698 697 696 695 694 693 692 691 690 689
731 732 732 732 732 732 732 733 733 734 734 734 735 735 736 736 736 737 737 737 737 737 737 736 736 736 735 735 734 734 734 735 734 734 734 733 732 731 730 730 729 729 729 728 727 727 727 727 726 726 725 725 724 723 722 721 720 719 719 718 717 715 713 712 710 709 708 707 706 705 704 703 702 701 700 699 698 697 696 695 694 693 692 691 690 689
731 731 731 732 732 732 733 733 734 734 734 735 735 736 736 736 737 737 737 737 737 737 737 736 736 736 735 735 734 734 733 733 733 733 733 732 731 730 729 729 728 728 728 727 727 726 726 726 725 725 725 724 724 723 722 721 720 719 718 718 717 716 715 713 711 710 708 707 706 705 704 703 702 701 699 699 698 697 696 694 694 693 692 691 690 689
730 730 731 731 732 732 733 734 734 734 735 735 736 736 736 736 737 737 737 737 737 737 737 736 736 736 735 735 734 734 733 732 732 731 731 731 730 729 729 728 727 727 726 726 726 726 725 725 724 724 724 724 723 723 722 721 720 719 718 717 716 715 714 713 712 710 709 707 706 704 704 703 701 700 699 698 697 696 695 694 693 692 691 690 689 688
729 730 731 731 732 733 734 734 734 735 735 736 736 736 736 737 737 737 737 737 737 737 737 736 736 736 735 735 734 734 733 732 731 730 729 729 729 728 727 727 726 726 725 725 725 725 725 724 724 724 723 723 722 722 722 721 720 719 718 717 716 715 713 712 711 710 709 708 706 705 704 702 701 700 699 698 697 696 695 694 693 692 691 690 689 688
729 730 731 732 732 733 734 734 735 735 736 736 736 736 737 737 737 737 737 737 737 737 737 736 736 736 735 735 735 734 733 732 731 730 729 728 727 727 726 726 725 725 725 724 724 724 724 724 723 723 722 722 722 721 721 721 720 719 718 717 716 714 713 712 711 710 709 708 707 705 704 702 701 700 699 698 697 696 695 694 693 692 691 690 689 688
729 730 731 732 733 734 734 735 735 736 736 736 736 737 737 737 737 737 737 737 737 737 736 736 736 736 736 735 735 734 734 733 731 730 729 728 727 726 726 725 725 724 724 724 724 724 723 723 723 722 722 722 721 721 720 720 719 719 718 717 716 714 713 712 711 710 709 708 707 706 704 703 702 701 699 698 697 695 694 694 693 692 691 690 689 688
729 730 731 732 733 734 734 735 735 736 736 736 736 737 737 737 737 737 737 737 737 736 736 736 736 736 736 735 735 734 733 732 731 730 729 728 727 726 725 725 724 724 724 723 723 723 723 722 722 722 722 721 721 721 720 720 719 718 718 717 715 714 714 713 711 710 709 708 707 706 705 704 703 702 700 699 698 696 694 694 692 692 691 690 689 687
730 731 732 733 734 734 735 735 736 736 736 736 736 737 737 737 737 737 737 737 737 736 736 736 736 736 735 735 734 734 733 732 731 730 729 728 727 727 726 725 724 724 723 723 722 722 722 722 722 722 721 721 721 721 720 719 719 718 717 716 715 714 714 713 711 710 709 709 707 706 705 704 703 702 701 700 698 696 694 693 692 691 690 689 688 687
731 732 733 734 734 735 735 736 736 736 736 736 737 737 737 737 737 737 737 737 737 737 737 736 736 736 735 734 734 733 732 732 731 730 729 728 727 726 726 725 724 724 723 723 722 722 722 722 722 722 721 722 721 721 720 719 719 717 716 716 715 714 714 713 712 710 709 709 708 707 705 704 703 702 701 700 699 697 695 693 692 690 689 688 687 686
Wind_Speed
19 20 20 19 19 19 20 20 20 20 21 21 21 20 19 19 20 21 22 23 24 26 28 30 31 31 30 29 29 29 29 28 27 27 26 26 25 25 24 24 23 23 23 23 23 23 23 23 23 23 23 22 22 22 22 23 23 23 23 23 23 23 24 25 25 26 26 26 26 26 27 27 26 26 25 23 22 22 22 22 22 22 22 22 22 22
19 19 19 19 18 19 20 20 19 19 20 21 20 20 19 20 20 22 23 24 25 27 29 30 30 30 30 29 29 29 29 28 27 26 26 25 25 24 24 24 23 23 23 23 23 23 23 23 23 23 23 22 22 22 23 23 23 23 23 23 23 24 25 26 26 26 27 27 27 27 27 26 25 24 23 21 20 20 20 21 22 22 22 22 22 22
19 19 19 18 18 19 20 20 20 19 19 19 19 19 19 20 21 23 24 25 27 28 29 29 29 29 29 29 29 29 28 27 26 26 25 25 24 24 24 24 23 23 23 23 23 23 23 23 23 23 23 23 22 23 23 24 24 23 23 23 24 25 26 26 27 27 27 27 28 28 27 26 25 23 22 21 20 20 20 21 21 22 22 22 22 22
19 19 19 19 18 19 19 19 19 18 18 18 19 19 20 21 23 24 25 26 27 28 28 28 28 28 28 28 29 29 28 26 25 25 25 24 24 24 23 23 23 23 23 23 23 23 23 23 23 23 23 22 23 23 24 24 24 24 24 24 25 26 27 27 27 27 27 28 28 29 28 27 26 24 23 22 21 21 21 21 21 21 21 22 22 23
19 18 19 18 18 18 19 18 18 18 19 19 20 21 22 23 24 25 26 26 27 27 27 27 27 27 27 27 28 28 27 25 25 24 24 24 24 23 23 23 23 23 23 23 23 23 23 23 22 22 22 23 23 24 24 24 24 24 24 25 26 27 27 28 28 28 28 28 29 29 29 28 26 25 24 23 22 22 21 21 20 20 21 21 22 22
20 19 19 18 18 19 19 19 19 20 21 22 22 23 24 24 25 25 25 26 26 26 26 26 26 25 26 26 27 27 26 25 24 24 24 23 23 23 23 23 23 23 23 23 23 23 22 22 22 22 23 23 23 24 24 24 24 25 25 26 27 27 28 28 28 29 29 29 29 29 29 28 27 26 25 25 24 23 22 21 21 21 21 21 22 22
22 20 20 19 20 20 21 21 21 22 22 23 24 24 24 24 24 24 25 25 25 25 25 25 25 24 25 25 26 25 25 24 24 24 24 23 23 23 23 23 23 23 23 22 22 22 22 22 22 22 23 23 23 24 24 24 24 25 26 26 27 27 27 28 28 29 29 29 29 29 28 27 27 27 26 26 25 25 24 23 22 22 22 21 22 22
23 23 22 21 21 22 22 22 22 22 22 22 23 24 24 24 24 24 24 24 24 24 24 23 23 23 24 24 24 24 24 24 25 25 25 24 24 23 23 23 23 23 22 21 21 21 22 22 22 23 23 23 24 24 24 24 25 25 26 26 26 27 27 27 28 28 29 29 29 28 28 27 27 27 26 26 25 25 24 24 23 23 22 22 22 22
23 23 23 22 21 21 22 22 22 21 21 22 23 23 24 24 24 24 24 23 23 22 21 21 21 22 23 23 23 23 23 23 23 24 24 23 24 24 25 24 23 22 21 21 21 21 22 22 23 23 23 24 24 24 24 25 25 25 25 25 26 26 26 27 27 28 28 29 29 29 28 28 27 27 26 25 24 24 23 23 23 23 23 23 22 22
23 22 22 22 21 20 21 22 22 22 22 22 23 24 24 24 24 24 23 22 21 21 19 19 20 21 22 22 22 22 23 23 23 23 23 23 24 24 24 24 23 22 21 21 21 22 22 23 23 23 24 24 24 24 24 24 24 25 25 25 25 26 26 26 27 27 28 29 29 29 29 28 27 26 26 24 23 23 22 22 22 22 23 23 23 22
21 21 20 21 20 20 20 21 22 23 23 23 24 24 25 25 24 22 21 20 20 19 19 18 19 20 21 21 22 22 23 23 24 24 25 25 25 24 23 22 21 21 22 22 22 23 23 23 24 24 24 24 24 23 24 24 24 25 25 25 25 25 26 26 27 27 28 29 29 29 29 28 26 25 24 23 22 21 21 21 21 21 22 23 23 22
19 19 19 19 19 19 20 21 22 22 22 21 22 22 23 23 22 21 19 18 18 18 18 19 18 19 20 21 22 22 22 22 23 25 26 25 23 22 21 21 21 22 23 24 25 25 25 25 25 25 24 24 24 24 24 24 25 25 25 25 25 25 26 26 27 27 28 29 29 29 29 28 26 25 23 22 21 20 20 20 20 21 21 22 22 22
20 19 19 19 20 20 20 21 21 20 20 20 19 19 19 19 18 17 17 17 17 17 18 19 19 20 21 21 22 21 21 21 22 23 24 23 22 21 21 21 22 23 25 26 27 28 27 26 25 25 24 24 24 25 25 25 25 25 25 25 25 25 26 26 27 27 28 29 30 30 29 27 25 23 22 21 20 19 19 20 20 20 21 21 22 22
21 21 20 20 20 20 21 21 20 19 19 19 20 20 19 17 15 14 15 15 16 17 17 19 20 21 21 21 21 20 19 19 20 21 22 21 20 20 20 21 23 24 25 27 27 28 27 26 26 26 26 25 26 26 26 26 26 25 25 25 25 25 26 26 27 27 27 28 29 29 28 26 24 22 21 20 19 19 19 19 20 20 21 21 21 21
21 20 19 19 20 20 20 19 19 19 19 20 19 19 17 16 14 13 13 14 15 16 17 19 21 22 22 21 20 19 17 17 17 19 20 21 20 20 20 21 23 24 25 26 27 28 28 27 27 27 26 26 26 27 26 26 25 25 24 25 25 26 26 26 27 27 27 28 28 28 26 24 22 21 20 19 18 18 18 19 20 20 21 21 21 21
20 19 18 18 19 19 19 18 18 18 18 17 16 15 14 14 13 13 13 13 14 15 16 18 19 20 21 20 19 17 15 15 15 17 19 20 20 20 20 21 23 24 25 26 26 27 28 28 27 26 25 26 26 26 25 25 24 24 25 25 25 26 26 27 27 27 27 27 27 26 24 22 21 20 19 19 18 18 19 19 20 20 21 21 21 21
19 18 18 17 17 17 18 18 18 17 16 15 14 13 13 13 13 13 13 13 14 15 16 15 13 12 14 18 18 15 13 13 13 15 17 19 21 22 21 21 23 24 26 26 27 27 27 26 25 24 25 25 26 25 24 24 24 24 25 25 26 26 27 27 27 27 26 25 24 23 22 21 21 21 21 20 20 20 20 20 21 21 21 21 21 21
17 17 16 16 16 17 18 18 17 17 15 14 13 13 13 13 13 14 14 14 15 15 15 14 13 10 9 14 16 15 14 14 14 16 17 19 22 23 23 23 23 25 26 26 26 26 25 24 24 24 25 25 24 24 24 24 24 24 25 25 26 27 27 27 26 25 25 23 22 22 21 21 21 22 22 22 22 22 22 22 22 22 22 22 22 22
15 15 15 16 17 18 17 17 16 15 15 14 14 14 14 14 14 14 15 15 16 16 16 15 15 14 15 16 18 18 17 16 16 16 17 19 21 23 23 23 23 24 24 25 25 24 23 23 23 24 25 25 25 24 24 24 24 25 25 26 26 26 26 25 25 24 23 22 22 21 22 22 22 22 23 23 23 23 23 23 23 24 24 24 24 23
19 19 17 17 18 17 17 16 16 16 16 15 14 14 14 14 15 15 15 16 17 17 16 16 16 17 17 18 19 20 19 17 16 16 16 18 20 22 22 21 21 22 23 24 24 22 21 22 23 24 25 26 25 24 24 24 24 25 25 26 25 25 24 23 23 22 22 22 23 23 23 23 23 23 23 23 23 24 24 24 24 25 25 25 25 24
25 25 25 23 20 18 16 16 17 16 16 15 14 14 13 13 14 15 16 17 17 17 17 16 17 18 17 17 18 20 21 19 17 15 15 16 18 20 20 19 20 21 23 23 22 20 20 22 24 25 25 26 25 24 23 24 25 25 25 24 23 23 22 22 22 22 23 23 24 24 24 23 23 23 23 23 24 24 24 24 24 25 25 25 25 24
27 27 28 27 24 23 22 22 21 18 17 17 16 15 14 14 15 17 19 19 19 18 17 17 17 17 17 18 21 23 24 22 20 18 15 14 16 19 18 18 19 19 19 19 18 19 21 23 24 25 25 25 24 24 24 24 24 23 23 22 21 21 21 21 22 23 24 24 24 24 24 23 23 23 23 23 23 23 23 23 24 24 24 23 23 22
29 30 30 29 28 28 28 27 25 24 23 23 22 21 20 19 19 20 21 21 20 20 19 19 18 19 20 22 24 25 25 24 23 21 15 11 13 17 18 17 16 15 15 17 19 22 23 24 25 25 25 25 25 24 24 23 22 21 20 20 20 21 21 22 23 23 24 24 24 23 23 23 22 22 22 22 22 22 22 22 23 23 22 20 19 18
30 31 31 31 30 30 30 30 29 29 28 28 27 26 24 23 23 23 23 23 22 21 19 19 18 19 20 22 23 23 22 20 20 19 15 11 13 16 16 14 13 14 16 19 21 22 23 24 25 25 25 24 23 22 21 20 19 18 19 20 21 22 22 23 23 23 23 23 22 22 22 21 21 20 20 20 20 20 20 21 22 21 20 18 16 15
28 29 29 30 30 30 30 30 30 29 29 28 26 23 22 22 23 24 25 24 23 20 18 16 14 14 15 16 17 18 17 14 13 14 14 11 13 15 14 12 13 15 18 20 22 22 23 24 25 25 24 22 20 19 18 17 17 17 19 21 22 22 22 22 22 22 22 21 21 20 20 20 19 19 19 18 19 19 20 21 21 21 19 16 14 13
25 25 26 27 27 27 27 26 26 25 24 23 21 20 19 21 22 22 21 20 19 16 14 11 10 10 11 11 12 12 12 10 10 11 12 11 11 12 12 12 13 15 18 21 22 22 23 23 24 23 21 19 17 16 16 16 17 19 20 21 22 21 21 21 21 21 21 20 20 19 19 19 18 18 18 18 18 19 19 20 20 19 17 15 13 12
23 23 23 23 23 23 23 22 22 21 20 19 18 18 18 19 18 16 14 13 13 12 10 7 6 8 10 11 11 11 12 11 11 11 12 12 10 9 11 13 14 16 18 21 22 22 21 21 20 20 18 16 15 15 17 19 20 21 21 21 21 20 21 21 21 21 20 20 19 19 18 18 18 18 18 17 17 17 17 18 18 17 16 14 13 11
23 23 23 22 22 22 22 21 21 21 20 19 18 18 18 18 15 12 10 9 8 8 7 6 5 6 8 10 12 14 15 14 13 13 13 10 8 8 11 14 16 17 18 19 21 21 18 17 16 15 14 14 15 17 19 21 22 22 21 21 20 20 20 21 21 20 20 19 19 19 18 18 18 18 17 17 17 16 16 16 15 15 14 13 12 9
25 24 23 22 22 22 22 22 22 21 20 19 18 18 17 16 15 13 12 12 9 6 6 7 7 8 9 11 13 14 15 14 13 12 10 7 7 9 12 14 15 16 17 17 18 17 14 12 11 11 13 15 17 19 21 22 23 22 21 21 21 21 21 21 20 20 19 19 19 18 19 19 19 19 19 18 17 16 15 14 14 13 13 11 10 9
27 26 25 24 23 22 22 22 22 22 21 20 19 19 17 16 15 15 15 14 11 8 8 8 9 10 10 11 10 10 10 11 9 7 6 5 7 9 12 14 15 16 16 14 11 8 8 9 10 11 14 16 19 21 21 22 22 21 21 21 22 23 23 22 20 20 20 20 20 20 20 20 20 20 19 18 17 15 14 13 12 12 11 9 8 9
24 24 25 26 26 24 23 22 22 22 22 22 22 21 20 19 17 16 15 13 11 9 9 10 10 10 10 8 5 4 5 7 6 4 5 6 8 10 13 14 15 16 16 12 5 1 4 8 12 15 16 18 19 20 21 20 20 20 20 21 23 24 24 22 21 21 21 21 22 22 22 21 21 20 19 17 15 13 12 12 12 11 9 7 8 9
20 21 23 25 26 26 25 23 22 21 21 22 23 23 21 19 17 14 12 11 10 10 11 11 11 11 10 9 6 5 6 7 7 7 8 8 10 12 13 13 14 15 15 12 8 4 3 5 12 17 17 18 19 19 20 19 19 19 20 22 24 24 23 22 21 22 23 23 24 23 23 22 21 19 17 16 14 13 12 11 11 10 8 8 9 10
18 20 22 23 25 26 26 24 23 22 22 22 22 21 19 16 13 11 10 10 11 11 12 13 12 11 11 11 11 10 10 10 9 10 10 10 11 12 13 13 13 13 13 11 10 9 7 8 12 16 17 18 18 18 19 18 18 19 20 22 23 24 23 22 22 23 24 24 25 25 24 23 20 18 16 16 15 15 14 13 12 11 11 11 11 12
16 18 20 21 22 23 24 24 24 23 23 22 21 19 16 13 11 10 10 10 11 12 12 13 12 11 11 11 11 11 11 12 11 11 11 12 12 12 13 13 12 11 10 9 10 11 11 12 13 14 15 18 18 18 18 18 18 19 21 21 22 22 22 22 23 23 24 24 25 25 24 22 19 17 15 15 16 16 16 15 15 14 13 13 13 13
15 16 17 18 19 20 21 21 22 23 23 23 21 17 13 11 10 10 10 10 10 11 11 11 11 11 11 11 11 12 13 14 13 12 13 14 14 13 12 11 10 9 9 10 10 11 10 12 13 13 14 15 17 18 18 18 19 20 21 21 21 21 21 22 22 22 23 24 24 23 22 20 17 15 15 15 16 17 17 17 16 15 14 13 13 13
14 15 16 16 17 17 18 19 20 21 22 21 18 14 11 9 8 8 8 9 9 10 10 10 10 11 11 13 14 14 16 15 15 14 14 15 15 13 11 10 10 11 10 11 11 10 10 12 13 14 13 13 14 16 18 19 20 21 21 22 22 21 21 21 21 21 21 21 22 21 19 17 16 15 16 16 17 17 17 16 16 15 14 13 12 12
13 14 15 16 17 17 17 18 19 18 17 15 12 9 8 7 7 7 7 8 8 9 9 10 11 12 13 14 15 16 16 16 15 14 13 13 12 12 11 11 11 11 11 11 11 11 11 11 12 13 12 11 11 13 17 20 21 21 22 22 22 21 21 21 21 20 19 19 19 18 17 16 16 16 17 17 17 17 16 15 15 14 13 13 12 11
13 14 15 16 17 18 18 18 16 13 10 8 7 6 5 5 5 5 6 7 8 9 10 11 12 13 13 14 15 15 15 14 13 12 10 9 9 10 11 11 12 13 12 12 12 12 12 10 8 7 8 11 13 14 16 18 19 21 22 22 21 20 20 20 21 20 19 18 16 15 15 15 16 17 17 17 17 16 16 15 14 14 13 13 12 11
12 13 15 16 17 17 16 13 10 7 5 5 5 5 5 5 5 5 5 6 7 8 8 8 8 9 9 10 10 10 9 9 8 8 7 7 8 9 11 12 13 14 14 14 13 13 12 10 8 6 7 10 13 15 16 16 17 19 21 21 21 20 20 20 21 20 19 17 15 14 15 16 17 17 17 17 17 16 16 16 15 14 14 14 13 13
12 14 15 15 15 13 10 6 4 4 4 4 4 4 4 3 3 3 4 4 4 3 3 3 4 4 5 5 5 5 5 5 5 5 6 7 8 9 11 12 14 15 15 15 14 13 12 11 10 9 10 10 12 14 15 16 16 18 18 18 18 18 20 20 21 20 18 16 15 14 16 17 18 18 18 18 17 17 17 16 16 15 14 14 15 16
13 14 14 12 9 6 4 3 3 4 4 4 3 2 1 1 1 1 1 1 2 3 3 4 5 5 5 4 4 5 5 6 6 7 8 8 9 9 10 11 13 14 14 14 14 13 12 11 11 10 10 11 13 14 15 15 16 16 16 15 16 18 19 19 19 19 19 17 15 15 16 17 17 18 19 19 18 18 16 16 16 15 14 14 14 16
11 11 9 6 3 3 4 4 4 4 3 2 2 2 2 2 1 2 2 3 3 4 5 6 7 8 8 7 7 6 7 8 9 9 10 10 10 10 10 10 11 12 13 13 13 12 11 10 10 10 10 11 12 13 13 15 15 15 15 15 16 17 17 17 18 19 19 17 15 15 15 16 17 17 18 19 19 19 17 16 15 15 14 14 14 14
9 7 4 4 5 5 5 4 4 3 3 3 3 3 2 1 2 2 2 3 4 5 6 8 9 9 10 11 11 10 10 10 11 11 12 12 11 11 10 10 9 10 11 12 12 11 11 10 10 10 11 12 12 12 13 14 14 15 14 14 15 14 12 15 17 19 19 17 16 15 15 15 16 16 17 18 19 19 19 17 16 15 14 14 14 14
6 5 5 5 5 4 4 3 2 2 3 3 3 2 1 1 1 1 1 3 4 6 7 8 9 9 10 11 13 14 14 13 13 13 13 13 13 12 10 9 8 8 9 11 11 11 11 11 11 11 12 12 12 12 12 12 13 13 14 14 13 12 11 13 16 18 18 18 17 16 15 15 16 17 17 18 19 20 19 18 17 16 15 15 15 15
6 6 6 6 5 4 4 3 2 2 2 3 3 2 1 0 0 1 2 4 5 6 8 8 9 9 9 10 12 15 16 17 17 17 16 15 14 13 11 9 8 8 8 9 10 11 11 11 12 12 13 13 12 12 11 11 11 12 13 13 14 14 14 15 15 17 17 18 18 17 16 15 16 17 18 19 20 21 21 19 19 18 18 18 18 18
8 8 7 6 6 5 4 3 2 2 2 2 3 3 2 2 2 3 4 5 6 7 8 9 9 9 9 10 11 13 16 18 20 20 20 18 16 14 12 10 8 7 7 8 8 9 10 11 12 13 13 13 12 11 10 10 10 11 13 15 16 16 16 15 16 16 17 17 18 18 17 16 17 18 19 20 21 21 21 20 19 20 20 21 20 19
10 10 9 8 7 6 5 3 2 1 1 2 3 3 3 3 4 4 5 6 7 8 8 9 9 8 8 10 11 12 14 16 19 21 21 20 18 16 14 12 10 8 7 7 7 8 9 10 11 12 13 12 11 10 9 9 10 12 14 15 16 16 15 15 16 16 16 16 17 17 17 18 18 19 20 20 21 21 21 21 20 21 21 21 21 20
12 11 10 9 7 6 4 3 2 1 2 3 4 4 4 4 5 5 6 7 7 8 8 8 8 8 9 10 11 12 13 15 17 19 20 21 20 18 16 14 12 10 8 7 7 7 8 9 9 9 10 9 8 7 8 10 12 13 14 15 15 15 14 15 16 16 16 16 16 16 16 17 18 18 19 20 20 20 20 21 21 22 22 22 21 21
12 11 10 8 6 4 3 2 2 3 4 5 5 5 5 5 5 6 6 7 7 7 7 7 8 8 9 10 12 13 15 16 17 18 19 19 19 19 18 16 14 12 9 8 8 8 8 8 7 7 6 6 5 6 8 11 13 14 14 14 14 14 14 15 16 17 17 16 16 15 15 15 16 16 17 18 18 19 20 21 22 22 22 22 21 20
11 9 7 6 4 2 3 4 5 6 7 7 7 7 6 6 6 6 6 7 7 6 6 7 8 9 10 11 13 14 15 17 18 19 19 18 18 19 18 17 15 14 12 10 9 9 8 8 7 5 4 3 4 6 9 12 14 14 14 15 15 14 14 15 16 17 17 17 17 16 16 15 15 15 17 17 18 18 19 20 21 22 23 22 20 19
7 6 4 4 5 6 8 8 8 8 8 9 8 8 8 7 7 8 7 7 7 6 6 7 8 9 11 12 14 15 16 17 18 18 19 19 19 18 17 16 15 14 12 10 9 8 7 6 5 5 4 2 3 5 9 12 13 14 15 15 15 14 14 15 16 17 18 17 17 16 16 16 15 16 16 17 17 17 18 20 21 23 23 22 20 19
Wind_Direction
281 283 285 285 285 285 285 285 287 288 290 293 295 296 296 293 291 290 291 292 294 296 300 303 306 309 311 312 313 314 314 312 310 309 308 308 308 308 308 307 307 307 307 308 309 310 310 311 311 310 310 309 308 308 308 309 309 309 310 311 312 312 313 313 313 312 311 310 309 307 305 303 301 298 295 293 292 291 291 293 294 296 297 298 298 296
284 285 285 285 284 283 283 283 284 286 288 290 292 293 292 290 289 289 290 291 294 297 300 304 306 308 310 311 312 313 312 311 309 308 307 307 307 307 306 306 305 306 307 308 308 309 309 310 310 309 309 309 308 308 308 309 309 309 311 311 312 312 312 312 311 311 311 311 310 308 306 305 302 300 297 295 293 291 291 292 294 295 297 298 297 295
286 286 285 284 283 281 282 283 285 285 287 288 289 289 288 288 288 289 290 293 295 298 300 303 306 307 308 309 311 312 311 310 308 307 307 307 307 306 306 305 305 305 306 307 307 308 308 308 309 309 309 309 308 308 309 309 309 310 311 312 312 312 312 311 311 311 311 310 309 308 308 307 305 303 300 298 296 295 294 294 294 294 295 295 295 295
285 285 285 285 284 282 282 284 286 286 286 286 286 286 286 286 288 289 291 293 295 297 300 303 304 305 306 308 310 311 311 309 307 306 306 306 306 306 305 305 305 305 306 306 306 307 307 308 308 309 309 308 308 308 308 308 309 310 311 312 312 312 311 311 311 311 311 311 310 310 310 310 308 305 303 301 299 298 297 296 295 294 294 293 294 294
284 284 285 286 286 284 284 284 285 286 285 285 285 285 286 287 288 289 290 292 294 296 299 301 303 304 305 306 308 310 310 308 306 305 306 305 305 305 305 304 304 304 305 305 306 307 307 308 308 308 308 308 308 308 308 308 308 310 312 312 312 312 312 312 312 311 311 311 310 310 311 312 311 309 306 304 303 302 301 299 298 297 296 295 294 294
283 283 284 284 284 284 284 284 284 284 285 285 285 285 285 286 286 287 288 290 292 295 297 299 301 302 303 305 307 308 308 307 305 305 305 304 304 303 303 303 304 304 305 306 306 307 308 308 309 309 308 308 307 307 307 308 309 310 311 311 311 312 312 312 312 312 311 311 311 311 312 313 313 313 311 309 307 305 303 301 300 298 297 296 295 294
283 283 283 283 282 282 283 283 283 283 284 285 285 285 284 284 284 284 285 287 290 293 295 297 298 301 303 305 307 308 308 307 307 307 306 305 303 302 302 302 303 304 305 306 306 307 308 308 308 308 308 307 307 307 307 307 308 309 309 310 310 311 311 312 312 311 311 311 310 311 313 314 316 317 317 314 311 308 305 302 300 299 297 296 295 295
282 283 282 282 283 284 283 282 282 282 282 283 283 284 284 283 282 282 283 285 287 290 292 295 297 300 302 305 307 308 308 308 308 308 307 306 304 303 302 303 303 304 304 305 305 306 306 307 307 307 307 306 306 306 306 306 306 307 308 309 309 310 311 311 311 311 310 310 311 312 313 316 317 318 317 315 313 309 305 302 299 298 297 296 295 296
277 281 282 281 282 284 286 284 283 282 281 280 279 279 281 281 281 281 282 283 284 286 289 292 295 298 301 304 306 307 306 305 305 304 304 303 302 301 302 302 303 303 304 304 304 304 305 305 306 306 306 306 305 305 305 305 305 306 307 308 309 310 310 310 310 310 310 310 311 312 314 316 317 316 314 312 310 308 305 302 299 298 296 295 295 295
273 276 279 281 280 280 282 283 283 282 281 279 276 275 275 276 278 280 281 281 282 284 286 290 294 297 300 303 304 304 304 302 301 299 299 298 298 298 300 302 303 303 303 303 303 303 303 304 305 305 305 305 305 304 304 305 306 307 308 309 310 310 309 310 310 310 309 310 311 312 313 315 316 314 312 310 309 307 306 303 300 298 296 296 295 295
273 274 277 280 281 279 277 278 280 281 281 278 275 273 271 269 270 273 275 277 280 283 286 289 292 295 298 301 302 302 301 300 299 298 298 299 300 302 303 305 305 304 304 304 304 304 303 304 304 305 305 305 305 306 306 307 308 309 310 311 310 310 310 310 310 309 309 309 309 311 313 314 314 313 312 311 310 309 307 304 301 299 297 297 296 296
274 277 278 279 280 280 278 277 278 279 277 274 272 271 268 266 266 266 267 271 277 282 286 289 291 293 296 298 300 300 299 298 297 298 300 303 305 307 308 309 308 308 307 307 306 306 305 305 305 306 307 307 308 309 310 311 312 313 313 312 311 309 310 309 309 309 308 308 309 311 313 314 314 314 314 314 313 311 309 306 303 300 298 297 296 296
272 275 276 276 276 276 276 276 276 274 270 265 263 265 268 269 268 265 264 268 273 279 284 289 292 294 296 297 297 297 296 295 295 297 299 301 304 307 307 307 308 308 308 307 306 306 306 306 306 307 308 309 311 313 314 315 315 315 313 311 309 308 309 309 309 309 309 310 311 312 314 316 317 317 317 318 317 315 311 308 305 302 299 296 295 295
270 271 272 273 272 271 270 270 269 267 265 262 261 263 267 271 271 267 265 268 271 276 283 288 292 296 297 297 295 294 292 292 293 294 295 297 300 303 304 303 304 305 305 305 304 304 305 305 306 307 309 312 314 316 317 316 315 313 310 308 308 308 308 309 310 310 311 313 313 314 316 317 319 321 323 323 322 320 316 312 308 305 302 299 297 295
265 266 268 269 269 268 267 265 263 262 263 265 266 267 269 270 268 265 264 267 272 278 285 290 294 296 297 296 295 294 292 290 289 289 291 293 296 300 300 300 301 302 303 302 301 302 303 304 305 307 311 313 315 316 316 314 311 309 307 307 307 308 309 310 311 312 313 314 314 314 315 317 321 324 326 326 324 322 319 316 313 310 308 305 301 297
262 262 264 266 267 267 266 265 264 265 266 268 268 267 266 264 262 259 257 261 270 279 287 291 295 297 297 296 296 295 293 289 285 284 286 289 292 296 297 298 299 300 300 299 298 299 302 304 306 309 311 313 313 313 311 308 307 306 307 307 308 309 310 311 311 312 313 314 314 313 314 317 321 324 325 324 323 322 320 318 316 314 312 309 305 302
260 260 263 266 267 268 268 267 266 267 268 269 267 263 259 257 255 253 252 258 269 278 283 286 290 295 297 297 297 296 296 292 287 284 285 287 289 293 295 296 297 297 297 296 296 298 300 303 306 308 309 310 310 309 307 306 306 306 307 308 309 310 310 310 311 311 312 313 312 313 315 318 321 322 322 321 320 318 317 315 314 312 311 309 306 305
257 257 260 263 266 269 270 269 268 266 265 264 262 261 258 255 253 253 256 262 269 274 277 279 280 283 287 292 292 293 294 293 290 287 286 285 288 291 294 295 295 294 294 294 295 297 299 301 303 305 306 306 306 305 304 305 306 307 308 308 309 310 310 311 311 312 312 313 314 315 317 318 318 318 317 317 315 314 313 311 310 309 308 306 304 303
263 259 257 261 265 268 266 264 262 261 259 257 257 257 255 254 255 257 259 265 268 270 273 276 276 276 278 281 284 286 288 288 286 285 284 283 286 290 294 295 294 293 292 292 294 296 298 301 303 305 305 305 305 305 305 306 306 307 308 309 310 310 311 311 312 313 314 315 317 318 318 316 315 314 313 312 311 310 309 308 307 306 305 303 301 299
281 277 271 270 271 270 265 258 256 257 259 259 256 253 253 255 259 263 267 271 272 272 272 272 272 273 275 277 280 282 285 284 283 282 281 281 284 288 292 293 292 290 289 290 292 295 299 301 304 306 307 307 307 306 306 306 307 308 309 310 310 311 311 312 314 315 316 316 317 316 315 314 313 312 311 309 309 308 308 307 305 304 303 301 299 296
282 280 278 277 275 271 267 265 264 265 263 260 253 249 252 260 267 272 275 278 278 275 272 269 268 270 273 274 277 280 284 283 282 280 280 281 283 286 290 290 289 287 285 287 291 297 301 303 305 306 307 308 308 307 307 307 308 309 310 311 312 312 313 314 315 315 315 315 315 315 314 313 312 310 309 308 307 307 306 306 305 303 302 300 297 294
276 276 276 275 272 270 270 271 271 268 264 260 259 261 267 273 277 279 282 283 280 276 272 268 267 269 272 273 276 280 283 281 277 276 278 280 282 285 289 290 286 282 282 287 294 301 305 306 307 307 308 309 308 308 308 308 309 310 311 312 314 315 315 315 316 316 316 315 314 314 313 312 310 308 307 306 306 305 305 305 304 304 303 300 296 292
273 274 275 274 272 270 270 271 270 269 266 265 268 272 276 279 280 280 283 281 278 275 272 270 270 271 273 274 277 281 284 282 278 273 272 274 281 287 291 289 285 284 289 296 302 306 308 308 308 308 309 310 310 311 313 313 312 312 314 315 316 317 318 318 318 318 317 315 314 313 311 310 308 306 305 305 304 304 304 306 308 311 311 308 302 296
274 274 274 274 273 272 271 270 269 269 269 270 273 277 281 283 284 283 282 280 276 273 271 270 272 273 274 274 277 281 286 288 282 272 263 266 277 284 287 288 293 298 300 304 307 308 309 308 308 309 311 312 314 317 318 316 314 314 316 317 319 319 319 319 318 318 317 315 314 312 310 308 307 306 305 305 304 304 305 308 315 320 322 319 311 303
281 279 278 278 278 276 273 271 269 269 270 272 274 278 282 285 286 285 283 278 274 270 268 268 268 269 270 272 273 279 288 292 285 271 258 265 275 279 284 293 303 306 305 306 308 309 308 308 309 311 314 316 319 320 320 318 317 318 319 319 320 321 321 321 321 320 319 317 315 313 312 311 309 308 307 307 307 307 308 311 318 325 328 325 318 308
289 287 287 286 285 283 280 276 273 271 271 270 271 274 278 281 281 278 275 271 267 263 258 255 256 262 270 274 275 279 290 297 294 280 265 267 273 279 288 301 307 308 306 307 309 309 309 308 310 313 316 318 320 321 319 317 319 320 321 321 321 322 323 323 324 323 322 320 318 317 315 314 312 311 311 310 309 309 308 311 317 325 330 330 324 313
288 287 286 285 285 284 282 279 277 274 270 267 267 270 273 275 274 271 267 264 259 250 236 236 252 271 281 285 287 290 296 300 298 289 277 270 271 282 296 306 309 309 307 308 309 310 309 307 308 311 315 318 319 318 316 317 319 321 323 323 322 322 323 325 325 324 324 322 321 319 317 315 315 314 313 311 310 309 308 309 315 323 330 332 328 320
286 285 284 283 281 279 277 275 272 269 266 266 268 271 273 273 272 268 266 270 264 248 232 243 267 284 291 292 293 295 297 296 292 284 277 271 272 285 298 307 310 311 310 309 310 310 308 306 307 311 315 318 317 316 316 319 322 324 327 327 326 325 324 325 326 326 325 324 323 322 320 319 318 317 315 314 313 311 310 311 314 320 325 329 332 332
289 287 286 285 283 280 277 273 270 266 265 267 270 272 274 274 273 273 276 282 282 273 265 271 280 288 293 296 297 297 297 293 286 277 271 272 278 289 301 308 312 313 313 312 310 309 308 308 313 318 320 319 317 317 319 322 325 329 330 330 329 328 328 328 328 329 328 327 327 326 325 323 322 321 320 319 318 317 316 314 314 315 318 326 337 346
292 292 292 291 289 286 281 276 271 267 266 266 267 268 270 270 271 273 276 279 282 284 284 285 287 291 295 298 299 298 297 293 283 270 271 280 288 296 305 309 311 312 313 311 308 306 309 316 321 322 321 319 318 319 321 324 328 330 331 330 329 330 331 331 331 332 332 332 332 331 330 329 329 328 328 327 326 324 321 317 313 310 312 326 344 352
295 296 296 296 295 293 288 282 275 270 266 265 264 265 268 270 272 272 273 274 278 284 288 289 290 291 293 295 296 294 292 294 285 279 298 297 296 301 307 309 309 310 310 306 302 306 316 320 320 320 320 319 319 320 323 326 329 331 330 329 329 331 333 334 335 335 336 336 336 336 336 336 336 337 337 337 335 331 326 320 314 310 311 332 350 351
303 303 301 300 298 296 292 287 281 274 268 265 264 266 270 272 273 271 269 270 275 282 286 287 287 285 282 277 272 271 275 284 290 299 308 300 297 301 305 306 305 304 304 301 304 317 317 317 317 318 320 320 320 321 323 326 329 330 329 328 329 331 335 335 336 337 338 339 339 340 341 342 343 346 348 348 347 345 341 335 331 331 338 351 354 347
311 309 306 304 300 296 292 288 283 277 271 268 267 269 271 270 267 263 261 263 268 274 280 281 279 275 272 269 266 266 272 282 294 303 303 299 299 303 305 303 300 298 299 302 309 314 311 308 312 316 319 320 320 321 324 327 329 329 327 327 328 331 335 336 336 337 337 339 340 342 345 348 351 354 356 356 357 358 357 355 355 358 2 1 353 342
312 311 308 305 300 295 291 288 283 278 273 270 269 268 266 259 253 251 253 259 263 267 269 272 271 266 262 264 266 269 276 285 294 300 299 300 303 305 303 299 297 298 304 310 315 316 311 309 310 313 317 319 321 322 324 327 328 327 327 328 329 330 332 335 336 336 337 338 340 343 347 352 356 358 359 1 1 359 357 356 355 356 356 354 346 337
312 310 307 303 298 293 290 287 283 278 273 269 265 260 252 244 241 245 252 258 261 261 262 264 266 267 265 264 267 273 279 288 295 299 299 303 305 304 300 299 303 310 315 316 317 316 312 311 311 312 315 317 320 323 325 327 327 327 328 330 331 331 332 335 335 335 336 337 339 343 348 353 356 357 357 356 354 351 348 346 344 342 340 339 336 331
311 307 303 299 294 290 287 284 280 275 268 261 253 243 232 230 236 247 255 257 257 258 259 262 267 271 272 272 272 274 280 288 295 298 300 303 306 306 305 306 312 316 316 315 313 311 308 308 310 312 314 316 319 323 325 327 328 328 330 332 333 334 335 337 337 336 335 336 340 345 351 355 356 354 352 349 346 343 341 339 338 337 335 333 332 331
309 304 300 296 291 287 282 278 273 267 258 248 235 222 217 225 239 249 254 255 257 260 264 268 271 273 274 274 274 277 281 286 291 295 300 305 310 312 311 310 311 312 311 309 307 306 305 305 307 310 313 316 319 322 324 326 328 329 330 331 333 334 336 339 339 338 337 338 343 350 357 359 357 354 350 347 344 342 341 342 342 341 340 338 337 337
306 301 298 295 291 286 279 272 265 256 243 227 212 207 212 226 238 247 254 261 267 272 275 276 277 276 276 276 276 278 281 285 290 297 304 312 318 320 318 313 311 311 308 304 302 301 301 301 303 308 314 317 319 320 321 324 326 327 329 330 332 335 337 339 340 340 340 344 351 358 2 2 1 358 355 352 351 350 351 352 352 352 350 348 346 345
305 301 298 295 290 283 274 264 253 236 215 200 195 201 210 220 234 251 267 277 282 284 286 287 288 288 287 286 286 286 289 293 298 306 316 324 327 326 324 317 314 313 313 309 304 299 296 294 296 304 313 318 319 320 321 322 323 325 327 329 333 335 338 340 341 342 345 351 357 2 4 5 5 4 4 3 2 1 360 359 358 357 354 351 348 346
302 300 297 293 287 278 265 249 222 194 181 181 187 195 204 222 252 275 285 290 296 308 324 330 330 324 317 313 313 317 320 322 324 328 330 330 328 327 325 322 319 317 316 313 307 301 294 290 292 300 309 314 316 317 319 320 322 325 327 329 331 333 335 338 341 345 349 356 360 1 2 3 4 6 7 7 7 5 2 360 358 356 354 351 348 346
296 294 292 288 278 259 227 189 165 155 156 161 165 170 188 299 319 329 352 34 44 38 25 11 359 349 342 342 347 348 347 345 342 340 336 332 329 327 326 325 323 322 320 315 311 303 295 290 293 301 308 311 311 311 313 316 320 325 328 328 327 327 330 335 341 346 351 355 358 358 358 358 359 1 2 3 4 3 1 358 357 355 353 351 349 345
287 284 280 267 224 165 144 135 130 128 127 116 90 53 32 31 63 91 86 65 44 24 7 357 350 344 339 337 339 342 344 344 344 342 340 337 334 330 328 327 327 327 324 318 310 302 296 294 296 301 306 308 307 307 309 314 319 324 327 328 327 328 330 335 342 346 349 352 354 355 355 354 353 353 354 356 357 359 360 360 359 357 354 352 349 345
275 263 233 178 152 139 129 120 108 95 72 46 32 29 36 69 102 101 66 34 19 9 360 355 350 345 341 338 338 339 340 341 342 343 344 344 341 337 332 330 329 329 325 317 308 300 299 299 299 300 303 305 304 302 305 311 318 325 328 330 332 332 331 331 337 343 346 349 352 354 354 351 348 347 348 350 353 356 359 1 2 1 359 356 353 349
246 210 178 163 155 148 137 118 92 64 40 31 31 38 54 104 119 82 22 12 8 4 360 355 351 347 343 340 339 338 336 335 336 340 345 348 349 347 340 334 329 327 324 317 307 300 301 301 302 304 307 306 303 302 305 311 318 325 329 332 332 330 324 324 329 336 342 347 352 355 354 350 345 344 345 348 352 355 358 1 3 4 3 2 359 357
207 185 171 163 155 145 133 118 96 66 44 40 41 43 41 44 347 349 356 2 3 360 356 352 348 345 342 343 342 339 335 333 333 336 341 347 352 354 352 345 336 328 322 315 309 304 300 298 301 306 310 309 306 305 307 314 321 326 329 330 330 328 324 327 333 339 343 347 351 355 355 351 347 346 348 350 351 353 356 359 0 1 2 2 1 360
187 171 161 152 146 140 135 130 119 93 62 47 38 30 23 13 5 2 1 359 357 354 350 347 345 345 345 346 347 345 341 338 337 337 339 343 348 354 359 358 351 338 326 317 311 308 304 302 303 305 307 307 307 309 314 321 327 329 329 331 332 333 335 339 345 349 350 350 351 354 356 355 353 352 353 351 350 350 352 356 357 358 359 359 358 357
171 159 152 147 145 145 146 146 140 120 75 43 33 29 27 21 14 6 359 353 349 346 344 343 344 347 350 351 351 350 348 345 342 341 341 342 345 349 356 2 2 353 340 327 319 314 311 309 309 306 304 302 303 309 321 332 335 334 333 334 337 338 339 343 351 356 357 355 353 354 358 358 356 354 353 350 347 345 346 349 353 355 355 354 353 352
158 152 149 149 152 156 160 159 144 100 63 45 40 38 33 21 10 1 354 348 345 344 344 346 348 351 353 354 353 351 348 346 343 341 341 342 343 345 349 355 359 359 354 344 335 328 323 320 315 311 307 303 301 307 324 337 341 341 341 343 344 345 343 347 354 359 360 358 358 359 360 358 354 351 349 346 343 340 340 341 345 349 350 350 348 347
149 148 151 156 164 172 172 137 94 73 61 54 51 47 38 21 7 357 353 349 347 348 351 354 355 355 354 352 351 350 347 344 341 339 338 339 340 341 343 347 351 355 357 356 350 343 337 333 329 324 319 321 323 328 337 342 344 346 348 352 354 353 350 352 355 358 359 358 359 1 2 360 358 354 349 344 339 336 335 336 338 342 345 346 345 344
144 149 156 164 166 145 103 87 78 70 62 56 51 45 36 24 12 4 359 356 355 356 357 358 358 356 353 350 349 347 344 341 338 336 335 336 337 337 337 340 344 348 351 354 352 347 341 338 339 342 346 354 355 351 348 346 346 348 352 358 1 1 356 353 353 354 355 354 354 357 359 0 1 359 353 345 338 335 334 335 336 339 342 345 345 346
139 141 137 120 100 91 87 81 73 63 55 48 42 36 29 24 19 14 9 4 1 359 359 359 358 356 352 348 345 343 340 338 336 333 333 334 335 334 333 334 336 340 343 345 344 339 337 339 343 349 360 14 357 347 349 349 349 350 352 356 1 3 358 352 350 350 350 349 350 352 354 356 358 358 355 346 339 336 335 335 335 338 343 348 350 351